ヒル彗星

369P/Hill (2009)

English version
Home page
Updated on October 24, 2018

---------------------------------------------------------------------

・ プロフィール

符号 369P/2010 A1
発見日 2010年1月6日
発見光度 17.6等
発見者 R. E. Hill (Catalina)

・ 写真集

・ 軌道要素

Epoch 2009 July 28.0 TT = JDT 2455040.5
T 2009 Aug. 6.82073 TT                                  MPCW
q   1.9497940            (2000.0)            P               Q
n   0.10771688     Peri.   13.09169     +0.49495619     -0.85881793
a   4.3746859      Node    47.41972     +0.78018013     +0.37231361
e   0.5543008      Incl.   10.33492     +0.38254062     +0.35187261
P   9.15
From 150 observations 2010 Jan. 6-2018 Aug. 12, mean residual 0".6.

・ 光度変化

        m1 = 13.5 + 5 logΔ + 10.0 log r

---------------------------------------------------------------------

軌道要素はM.P.E.C. 2018-P80に掲載されたものです。
光度グラフはComet for Windowsで作成したものです。

---------------------------------------------------------------------

Copyright(C) Seiichi Yoshida (comet@aerith.net). All rights reserved.